| time (UTC) | temp C | wind direction | speed KPH | gust KPH | rain 1hr cm | rain 24hr cm | rain mn cm | humidity % | barometer mb |
| 20260831064055 | 18 | 212 | 11.3 | 20.9 | 0.00 | 0.00 | 0.00 | 77 | 1010.7 |
| 20260831063559 | 18 | 240 | 8.0 | 17.7 | 0.00 | 0.00 | 0.00 | 78 | 1010.7 |
| 20260831063111 | 18 | 250 | 6.4 | 16.1 | 0.00 | 0.00 | 0.00 | 79 | 1010.6 |
| 20260831062557 | 17 | 201 | 4.8 | 16.1 | 0.00 | 0.00 | 0.00 | 80 | 1010.5 |
| 20260831062056 | 17 | 211 | 6.4 | 16.1 | 0.00 | 0.00 | 0.00 | 80 | 1010.5 |
| 20260831061608 | 17 | 196 | 6.4 | 16.1 | 0.00 | 0.00 | 0.00 | 81 | 1010.4 |
| 20260831061059 | 17 | 360 | 6.4 | 16.1 | 0.00 | 0.00 | 0.00 | 81 | 1010.5 |
| 20260831060556 | 16 | 217 | 6.4 | 16.1 | 0.00 | 0.00 | 0.00 | 82 | 1010.4 |
| 20260831060110 | 16 | 215 | 8.0 | 16.1 | 0.00 | 0.00 | 0.00 | 82 | 1010.3 |
| 20260831055556 | 16 | 360 | 8.0 | 16.1 | 0.00 | 0.00 | 0.00 | 82 | 1010.3 |
| 20260831055056 | 16 | 360 | 8.0 | 24.1 | 0.00 | 0.00 | 0.00 | 83 | 1010.2 |
| 20260831054627 | 15 | 360 | 8.0 | 24.1 | 0.00 | 0.00 | 0.00 | 83 | 1010.1 |
| 20260831054056 | 15 | 360 | 3.2 | 9.7 | 0.00 | 0.00 | 0.00 | 83 | 1010.1 |
| 20260831053556 | 15 | 360 | 3.2 | 8.0 | 0.00 | 0.00 | 0.00 | 83 | 1010.2 |
| 20260831053109 | 15 | 360 | 3.2 | 8.0 | 0.00 | 0.00 | 0.00 | 83 | 1010.2 |
| 20260831052556 | 15 | 360 | 3.2 | 8.0 | 0.00 | 0.00 | 0.00 | 83 | 1010.3 |
| 20260831052059 | 15 | 360 | 3.2 | 12.9 | 0.00 | 0.00 | 0.00 | 82 | 1010.3 |
| 20260831051608 | 15 | 360 | 4.8 | 12.9 | 0.00 | 0.00 | 0.00 | 82 | 1010.2 |
| 20260831051058 | 15 | 360 | 4.8 | 8.0 | 0.00 | 0.00 | 0.00 | 82 | 1010.3 |
| 20260831050557 | 15 | 360 | 3.2 | 8.0 | 0.00 | 0.00 | 0.00 | 82 | 1010.2 |
| 20260831050110 | 15 | 360 | 3.2 | 6.4 | 0.00 | 0.00 | 0.00 | 81 | 1010.2 |
| 20260831045559 | 15 | 360 | 1.6 | 6.4 | 0.00 | 0.08 | 0.00 | 81 | 1010.1 |
| 20260831045056 | 15 | 360 | 3.2 | 12.9 | 0.00 | 0.08 | 0.00 | 81 | 1010.0 |
| 20260831044607 | 15 | 360 | 3.2 | 12.9 | 0.00 | 0.08 | 0.00 | 81 | 1009.9 |
| 20260831044056 | 15 | 360 | 4.8 | 12.9 | 0.00 | 0.08 | 0.00 | 80 | 1009.9 |
| 20260831043558 | 16 | 360 | 3.2 | 8.0 | 0.00 | 0.08 | 0.00 | 80 | 1010.0 |
| 20260831043106 | 16 | 360 | 3.2 | 8.0 | 0.00 | 0.08 | 0.00 | 80 | 1010.0 |
| 20260831042558 | 16 | 360 | 1.6 | 8.0 | 0.00 | 0.08 | 0.00 | 79 | 1009.9 |
| 20260831042056 | 16 | 360 | 1.6 | 8.0 | 0.00 | 0.08 | 0.00 | 79 | 1009.8 |
| 20260831041611 | 16 | 360 | 3.2 | 14.5 | 0.00 | 0.08 | 0.00 | 79 | 1009.8 |
| 20260831041059 | 16 | 360 | 1.6 | 14.5 | 0.00 | 0.08 | 0.00 | 79 | 1009.9 |
| 20260831040555 | 16 | 360 | 4.8 | 14.5 | 0.00 | 0.08 | 0.00 | 79 | 1010.1 |
| 20260831040111 | 16 | 360 | 4.8 | 9.7 | 0.00 | 0.08 | 0.00 | 78 | 1010.0 |
| 20260831035559 | 16 | 360 | 4.8 | 12.9 | 0.00 | 0.08 | 0.00 | 78 | 1009.9 |
| 20260831035056 | 16 | 360 | 4.8 | 12.9 | 0.00 | 0.08 | 0.00 | 78 | 1009.9 |
| 20260831034604 | 16 | 360 | 4.8 | 12.9 | 0.00 | 0.08 | 0.00 | 78 | 1009.8 |
| 20260831034057 | 16 | 360 | 4.8 | 9.7 | 0.00 | 0.08 | 0.00 | 78 | 1010.0 |
| 20260831033559 | 16 | 360 | 3.2 | 12.9 | 0.00 | 0.08 | 0.00 | 78 | 1010.0 |
| 20260831033059 | 16 | 360 | 4.8 | 12.9 | 0.00 | 0.08 | 0.00 | 78 | 1010.2 |
| 20260831032556 | 16 | 360 | 3.2 | 9.7 | 0.00 | 0.08 | 0.00 | 78 | 1010.2 |
| 20260831032057 | 16 | 360 | 3.2 | 12.9 | 0.00 | 0.08 | 0.00 | 78 | 1010.3 |
| 20260831031607 | 16 | 360 | 4.8 | 12.9 | 0.00 | 0.08 | 0.00 | 78 | 1010.3 |
| 20260831031057 | 16 | 360 | 4.8 | 14.5 | 0.00 | 0.08 | 0.00 | 78 | 1010.2 |
| 20260831030556 | 16 | 360 | 4.8 | 14.5 | 0.00 | 0.08 | 0.00 | 78 | 1010.1 |
| 20260831025557 | 16 | 360 | 6.4 | 12.9 | 0.00 | 0.08 | 0.00 | 79 | 1010.2 |
| 20260831025057 | 16 | 360 | 4.8 | 9.7 | 0.00 | 0.08 | 0.00 | 79 | 1010.2 |
| 20260831024606 | 16 | 360 | 4.8 | 9.7 | 0.00 | 0.08 | 0.00 | 79 | 1010.6 |
| 20260831024057 | 16 | 360 | 3.2 | 12.9 | 0.00 | 0.08 | 0.00 | 79 | 1010.8 |
| 20260831023556 | 16 | 360 | 4.8 | 12.9 | 0.00 | 0.08 | 0.00 | 79 | 1011.0 |
| 20260831023103 | 16 | 360 | 4.8 | 9.7 | 0.00 | 0.08 | 0.00 | 79 | 1011.1 |
| 20260831022600 | 16 | 360 | 3.2 | 12.9 | 0.00 | 0.08 | 0.00 | 79 | 1011.1 |
| 20260831022057 | 16 | 360 | 4.8 | 12.9 | 0.00 | 0.08 | 0.00 | 78 | 1010.9 |
| 20260831021604 | 16 | 360 | 4.8 | 12.9 | 0.00 | 0.08 | 0.00 | 78 | 1011.0 |
| 20260831021101 | 16 | 360 | 4.8 | 14.5 | 0.00 | 0.08 | 0.00 | 78 | 1011.0 |
| 20260831020558 | 16 | 360 | 6.4 | 14.5 | 0.00 | 0.08 | 0.00 | 78 | 1010.9 |
| 20260831020104 | 16 | 360 | 4.8 | 12.9 | 0.00 | 0.08 | 0.00 | 78 | 1010.9 |
| 20260831015601 | 16 | 360 | 3.2 | 12.9 | 0.00 | 0.08 | 0.00 | 78 | 1010.9 |
| 20260831015057 | 16 | 360 | 6.4 | 12.9 | 0.00 | 0.08 | 0.00 | 78 | 1010.9 |
| 20260831014605 | 16 | 360 | 4.8 | 9.7 | 0.00 | 0.08 | 0.00 | 78 | 1011.0 |
| 20260831014057 | 16 | 360 | 3.2 | 9.7 | 0.00 | 0.08 | 0.00 | 78 | 1011.2 |
| 20260831013557 | 16 | 360 | 4.8 | 12.9 | 0.00 | 0.08 | 0.00 | 78 | 1011.3 |
| 20260831013114 | 16 | 360 | 6.4 | 12.9 | 0.00 | 0.08 | 0.00 | 78 | 1011.4 |
| 20260831012558 | 16 | 360 | 6.4 | 12.9 | 0.00 | 0.08 | 0.00 | 78 | 1011.5 |
| 20260831012058 | 16 | 360 | 6.4 | 12.9 | 0.00 | 0.08 | 0.00 | 78 | 1011.3 |
| 20260831011600 | 16 | 360 | 6.4 | 12.9 | 0.00 | 0.08 | 0.00 | 78 | 1011.2 |
| 20260831011057 | 16 | 360 | 4.8 | 12.9 | 0.00 | 0.08 | 0.00 | 78 | 1011.3 |
| 20260831010557 | 16 | 360 | 1.6 | 8.0 | 0.00 | 0.08 | 0.00 | 79 | 1011.3 |
| 20260831010123 | 16 | 360 | 3.2 | 9.7 | 0.00 | 0.08 | 0.00 | 79 | 1011.4 |
| 20260831005557 | 16 | 360 | 4.8 | 12.9 | 0.00 | 0.08 | 0.00 | 79 | 1011.5 |
| 20260831005058 | 15 | 360 | 4.8 | 12.9 | 0.00 | 0.08 | 0.00 | 79 | 1011.6 |
| 20260831004611 | 15 | 360 | 6.4 | 12.9 | 0.00 | 0.08 | 0.00 | 80 | 1011.5 |
| 20260831004101 | 15 | 360 | 4.8 | 9.7 | 0.00 | 0.08 | 0.00 | 80 | 1011.6 |
| 20260831003557 | 15 | 360 | 3.2 | 9.7 | 0.00 | 0.08 | 0.00 | 80 | 1011.5 |
| 20260831003108 | 15 | 360 | 3.2 | 8.0 | 0.00 | 0.08 | 0.00 | 80 | 1011.7 |
| 20260831002557 | 15 | 360 | 3.2 | 8.0 | 0.00 | 0.08 | 0.00 | 80 | 1011.7 |
| 20260831002057 | 15 | 360 | 3.2 | 9.7 | 0.00 | 0.08 | 0.00 | 80 | 1011.7 |
| 20260831001602 | 15 | 360 | 4.8 | 9.7 | 0.00 | 0.08 | 0.00 | 80 | 1011.7 |
| 20260831001057 | 15 | 360 | 3.2 | 9.7 | 0.00 | 0.08 | 0.00 | 80 | 1011.7 |
| 20260831000557 | 15 | 360 | 3.2 | 9.7 | 0.00 | 0.08 | 0.00 | 80 | 1011.8 |
| 20260831000103 | 15 | 360 | 3.2 | 8.0 | 0.00 | 0.08 | 0.00 | 80 | 1011.9 |
| 20260830235559 | 15 | 360 | 1.6 | 8.0 | 0.00 | 0.08 | 0.00 | 80 | 1011.9 |
| 20260830235058 | 15 | 360 | 1.6 | 9.7 | 0.00 | 0.08 | 0.00 | 80 | 1011.9 |
| 20260830234600 | 15 | 360 | 1.6 | 9.7 | 0.00 | 0.08 | 0.00 | 80 | 1011.9 |
| 20260830234057 | 15 | 360 | 1.6 | 9.7 | 0.00 | 0.08 | 0.00 | 80 | 1012.0 |
| 20260830233557 | 15 | 360 | 3.2 | 8.0 | 0.00 | 0.08 | 0.00 | 80 | 1012.0 |
| 20260830233104 | 15 | 360 | 3.2 | 9.7 | 0.00 | 0.08 | 0.00 | 80 | 1012.0 |
| 20260830232558 | 15 | 360 | 4.8 | 9.7 | 0.00 | 0.08 | 0.00 | 80 | 1012.1 |
| 20260830232057 | 16 | 360 | 3.2 | 9.7 | 0.00 | 0.08 | 0.00 | 81 | 1012.0 |
| 20260830231607 | 16 | 360 | 4.8 | 12.9 | 0.00 | 0.08 | 0.00 | 81 | 1012.1 |
| 20260830231058 | 16 | 360 | 4.8 | 12.9 | 0.00 | 0.08 | 0.00 | 81 | 1012.2 |
| 20260830230558 | 15 | 360 | 4.8 | 12.9 | 0.00 | 0.08 | 0.00 | 81 | 1012.3 |
| 20260830230106 | 15 | 360 | 4.8 | 9.7 | 0.00 | 0.08 | 0.00 | 81 | 1012.3 |
| 20260830225558 | 15 | 360 | 4.8 | 12.9 | 0.00 | 0.10 | 0.00 | 81 | 1012.4 |
| 20260830225059 | 15 | 360 | 3.2 | 12.9 | 0.00 | 0.10 | 0.00 | 81 | 1012.3 |
| 20260830224607 | 16 | 360 | 3.2 | 6.4 | 0.00 | 0.10 | 0.00 | 81 | 1012.3 |
| 20260830224058 | 16 | 360 | 0.0 | 4.8 | 0.00 | 0.10 | 0.00 | 80 | 1012.3 |
| 20260830223558 | 16 | 0 | 0.0 | 6.4 | 0.00 | 0.10 | 0.00 | 80 | 1012.3 |
| 20260830223105 | 16 | 360 | 1.6 | 6.4 | 0.00 | 0.10 | 0.00 | 79 | 1012.3 |
| 20260830222558 | 16 | 360 | 1.6 | 4.8 | 0.00 | 0.10 | 0.00 | 79 | 1012.3 |
| 20260830222058 | 16 | 360 | 0.0 | 3.2 | 0.00 | 0.10 | 0.00 | 78 | 1012.3 |
| 20260830221605 | 16 | 0 | 0.0 | 4.8 | 0.00 | 0.10 | 0.00 | 78 | 1012.3 |
| 20260830221058 | 16 | 360 | 1.6 | 4.8 | 0.00 | 0.10 | 0.00 | 78 | 1012.3 |
| 20260830220558 | 16 | 360 | 1.6 | 4.8 | 0.00 | 0.10 | 0.00 | 78 | 1012.3 |
| 20260830220103 | 17 | 360 | 1.6 | 4.8 | 0.00 | 0.10 | 0.00 | 77 | 1012.4 |
| 20260830215601 | 17 | 0 | 0.0 | 3.2 | 0.00 | 0.10 | 0.10 | 77 | 1012.3 |
| 20260830215057 | 17 | 360 | 1.6 | 3.2 | 0.00 | 0.10 | 0.10 | 77 | 1012.4 |
| 20260830214605 | 17 | 360 | 0.0 | 0.0 | 0.00 | 0.10 | 0.10 | 76 | 1012.4 |
| 20260830214057 | 17 | 0 | 0.0 | 0.0 | 0.00 | 0.10 | 0.10 | 76 | 1012.4 |
| 20260830213558 | 17 | 0 | 0.0 | 3.2 | 0.00 | 0.10 | 0.10 | 76 | 1012.4 |
| 20260830213101 | 17 | 0 | 0.0 | 3.2 | 0.00 | 0.10 | 0.10 | 75 | 1012.4 |
| 20260830212557 | 18 | 0 | 0.0 | 3.2 | 0.00 | 0.10 | 0.10 | 74 | 1012.4 |
| 20260830212058 | 18 | 0 | 0.0 | 4.8 | 0.00 | 0.10 | 0.10 | 73 | 1012.4 |
| 20260830211600 | 18 | 258 | 0.0 | 4.8 | 0.00 | 0.10 | 0.10 | 73 | 1012.4 |
| 20260830211058 | 18 | 0 | 1.6 | 4.8 | 0.00 | 0.10 | 0.10 | 72 | 1012.4 |
| 20260830210558 | 18 | 0 | 1.6 | 4.8 | 0.00 | 0.10 | 0.10 | 72 | 1012.4 |
| 20260830210115 | 18 | 258 | 0.0 | 4.8 | 0.00 | 0.10 | 0.10 | 71 | 1012.4 |
| 20260830205559 | 18 | 258 | 0.0 | 4.8 | 0.00 | 0.10 | 0.10 | 71 | 1012.5 |
| 20260830205057 | 18 | 360 | 1.6 | 8.0 | 0.00 | 0.10 | 0.10 | 71 | 1012.5 |
| 20260830204605 | 18 | 360 | 1.6 | 8.0 | 0.00 | 0.10 | 0.10 | 71 | 1012.5 |
| 20260830204057 | 18 | 360 | 1.6 | 6.4 | 0.00 | 0.10 | 0.10 | 71 | 1012.4 |
| 20260830203557 | 18 | 0 | 1.6 | 8.0 | 0.00 | 0.10 | 0.10 | 71 | 1012.5 |
| 20260830203103 | 18 | 360 | 3.2 | 9.7 | 0.00 | 0.10 | 0.10 | 71 | 1012.4 |
| 20260830202557 | 18 | 360 | 3.2 | 9.7 | 0.00 | 0.10 | 0.10 | 71 | 1012.5 |
| 20260830202058 | 18 | 360 | 3.2 | 6.4 | 0.00 | 0.10 | 0.10 | 71 | 1012.5 |
| 20260830201612 | 18 | 360 | 1.6 | 8.0 | 0.00 | 0.10 | 0.10 | 71 | 1012.5 |
| 20260830201101 | 18 | 360 | 3.2 | 17.7 | 0.00 | 0.10 | 0.10 | 71 | 1012.5 |
| 20260830200557 | 19 | 360 | 3.2 | 17.7 | 0.00 | 0.10 | 0.10 | 71 | 1012.5 |
| 20260830195557 | 19 | 360 | 4.8 | 9.7 | 0.00 | 0.10 | 0.10 | 71 | 1012.6 |
| 20260830195057 | 19 | 360 | 4.8 | 9.7 | 0.00 | 0.10 | 0.10 | 71 | 1012.7 |
| 20260830194613 | 19 | 360 | 4.8 | 9.7 | 0.00 | 0.10 | 0.10 | 71 | 1012.7 |
| 20260830194057 | 19 | 360 | 4.8 | 9.7 | 0.00 | 0.10 | 0.10 | 70 | 1012.7 |
| 20260830193601 | 19 | 360 | 4.8 | 12.9 | 0.00 | 0.10 | 0.10 | 70 | 1012.7 |
| 20260830193101 | 19 | 360 | 4.8 | 12.9 | 0.00 | 0.10 | 0.10 | 70 | 1012.7 |
| 20260830192559 | 19 | 360 | 4.8 | 14.5 | 0.00 | 0.10 | 0.10 | 70 | 1012.8 |
| 20260830192058 | 19 | 360 | 6.4 | 14.5 | 0.00 | 0.10 | 0.10 | 70 | 1012.7 |
| 20260830191609 | 19 | 360 | 6.4 | 14.5 | 0.00 | 0.10 | 0.10 | 70 | 1012.7 |
| 20260830191057 | 19 | 360 | 6.4 | 14.5 | 0.00 | 0.10 | 0.10 | 69 | 1012.7 |
| 20260830190558 | 19 | 360 | 8.0 | 14.5 | 0.00 | 0.10 | 0.10 | 69 | 1012.6 |
| 20260830190110 | 19 | 360 | 6.4 | 14.5 | 0.00 | 0.10 | 0.10 | 69 | 1012.7 |
| 20260830185558 | 19 | 360 | 6.4 | 12.9 | 0.00 | 0.10 | 0.10 | 69 | 1012.6 |
| 20260830185221 | 19 | 360 | 6.4 | 14.5 | 0.00 | 0.10 | 0.10 | 69 | 1012.5 |
| 20260830184606 | 19 | 360 | 4.8 | 14.5 | 0.00 | 0.10 | 0.10 | 69 | 1012.5 |
| 20260830184056 | 19 | 360 | 6.4 | 14.5 | 0.00 | 0.10 | 0.10 | 69 | 1012.5 |
| 20260830183558 | 19 | 360 | 6.4 | 14.5 | 0.00 | 0.10 | 0.10 | 68 | 1012.5 |
| 20260830183101 | 20 | 360 | 6.4 | 14.5 | 0.00 | 0.10 | 0.10 | 68 | 1012.4 |
| 20260830182558 | 20 | 360 | 4.8 | 19.3 | 0.00 | 0.10 | 0.10 | 68 | 1012.4 |
| 20260830182058 | 20 | 360 | 9.7 | 19.3 | 0.00 | 0.10 | 0.10 | 68 | 1012.4 |
| 20260830181603 | 20 | 360 | 9.7 | 19.3 | 0.00 | 0.10 | 0.10 | 67 | 1012.4 |
| 20260830181057 | 20 | 360 | 8.0 | 19.3 | 0.00 | 0.10 | 0.10 | 67 | 1012.3 |
| 20260830180558 | 20 | 360 | 6.4 | 17.7 | 0.00 | 0.10 | 0.10 | 67 | 1012.3 |
| 20260830180105 | 20 | 360 | 9.7 | 17.7 | 0.00 | 0.10 | 0.10 | 66 | 1012.3 |
| 20260830175557 | 20 | 360 | 11.3 | 22.5 | 0.00 | 0.10 | 0.10 | 66 | 1012.3 |
| 20260830175057 | 20 | 360 | 11.3 | 22.5 | 0.00 | 0.10 | 0.10 | 66 | 1012.2 |
| 20260830174637 | 20 | 360 | 11.3 | 22.5 | 0.00 | 0.10 | 0.10 | 66 | 1012.1 |
| 20260830174058 | 20 | 360 | 9.7 | 22.5 | 0.00 | 0.10 | 0.10 | 66 | 1012.1 |
| 20260830173558 | 20 | 360 | 8.0 | 17.7 | 0.00 | 0.10 | 0.10 | 67 | 1012.1 |
| 20260830173103 | 20 | 215 | 4.8 | 17.7 | 0.00 | 0.10 | 0.10 | 67 | 1012.1 |
| 20260830172557 | 20 | 360 | 8.0 | 17.7 | 0.00 | 0.10 | 0.10 | 67 | 1012.1 |
| 20260830172058 | 20 | 360 | 11.3 | 17.7 | 0.00 | 0.10 | 0.10 | 66 | 1012.1 |
| 20260830171614 | 20 | 360 | 6.4 | 17.7 | 0.00 | 0.10 | 0.10 | 66 | 1012.1 |
| 20260830171056 | 21 | 360 | 9.7 | 22.5 | 0.00 | 0.10 | 0.10 | 65 | 1012.0 |
| 20260830170557 | 21 | 360 | 9.7 | 22.5 | 0.00 | 0.10 | 0.10 | 65 | 1012.0 |
| 20260830165557 | 21 | 360 | 12.9 | 22.5 | 0.00 | 0.10 | 0.10 | 65 | 1011.9 |
| 20260830165057 | 21 | 242 | 12.9 | 22.5 | 0.00 | 0.10 | 0.10 | 65 | 1011.9 |
| 20260830164605 | 21 | 266 | 12.9 | 29.0 | 0.00 | 0.10 | 0.10 | 65 | 1011.9 |
| 20260830164057 | 21 | 266 | 14.5 | 29.0 | 0.00 | 0.10 | 0.10 | 65 | 1011.9 |
| 20260830163558 | 21 | 259 | 11.3 | 29.0 | 0.00 | 0.10 | 0.10 | 65 | 1012.0 |
| 20260830163103 | 21 | 247 | 14.5 | 29.0 | 0.00 | 0.10 | 0.10 | 64 | 1012.0 |
| 20260830162557 | 21 | 239 | 14.5 | 29.0 | 0.00 | 0.10 | 0.10 | 64 | 1012.0 |
| 20260830162058 | 21 | 239 | 16.1 | 27.4 | 0.00 | 0.10 | 0.10 | 64 | 1011.9 |
| 20260830161615 | 21 | 249 | 14.5 | 27.4 | 0.00 | 0.10 | 0.10 | 65 | 1012.0 |
| 20260830161057 | 21 | 236 | 11.3 | 22.5 | 0.00 | 0.10 | 0.10 | 65 | 1011.9 |
| 20260830160603 | 21 | 257 | 12.9 | 22.5 | 0.00 | 0.10 | 0.10 | 66 | 1012.0 |
| 20260830155558 | 21 | 232 | 8.0 | 17.7 | 0.00 | 0.10 | 0.10 | 66 | 1011.9 |
| 20260830155058 | 21 | 242 | 9.7 | 19.3 | 0.00 | 0.10 | 0.10 | 66 | 1011.9 |
| 20260830154606 | 21 | 262 | 11.3 | 19.3 | 0.00 | 0.10 | 0.10 | 66 | 1012.0 |
| 20260830154100 | 21 | 281 | 11.3 | 22.5 | 0.00 | 0.10 | 0.10 | 66 | 1012.0 |
| 20260830153558 | 21 | 244 | 12.9 | 24.1 | 0.00 | 0.10 | 0.10 | 65 | 1012.0 |
| 20260830153106 | 21 | 250 | 12.9 | 29.0 | 0.00 | 0.10 | 0.10 | 65 | 1012.0 |
| 20260830152557 | 21 | 273 | 12.9 | 29.0 | 0.00 | 0.10 | 0.10 | 65 | 1011.9 |
| 20260830152057 | 21 | 289 | 17.7 | 29.0 | 0.00 | 0.10 | 0.10 | 65 | 1012.1 |
| 20260830151601 | 21 | 239 | 12.9 | 30.6 | 0.00 | 0.10 | 0.10 | 67 | 1012.1 |
| 20260830151100 | 21 | 276 | 12.9 | 30.6 | 0.00 | 0.10 | 0.10 | 66 | 1012.0 |
| 20260830150559 | 21 | 280 | 9.7 | 24.1 | 0.00 | 0.10 | 0.10 | 67 | 1012.0 |
| 20260830145559 | 21 | 261 | 11.3 | 20.9 | 0.00 | 0.10 | 0.10 | 66 | 1011.9 |
| 20260830145058 | 21 | 265 | 11.3 | 22.5 | 0.00 | 0.10 | 0.10 | 67 | 1011.9 |
| 20260830144605 | 21 | 240 | 8.0 | 29.0 | 0.00 | 0.10 | 0.10 | 67 | 1012.0 |
| 20260830144058 | 21 | 253 | 12.9 | 29.0 | 0.00 | 0.10 | 0.10 | 67 | 1011.9 |
| 20260830143558 | 21 | 252 | 16.1 | 29.0 | 0.00 | 0.10 | 0.10 | 67 | 1011.9 |
| 20260830143103 | 21 | 270 | 9.7 | 22.5 | 0.00 | 0.10 | 0.10 | 68 | 1011.9 |
| 20260830142557 | 20 | 252 | 9.7 | 20.9 | 0.00 | 0.10 | 0.10 | 69 | 1011.9 |
| 20260830142056 | 20 | 360 | 12.9 | 20.9 | 0.00 | 0.10 | 0.10 | 69 | 1011.8 |
| 20260830141559 | 20 | 246 | 9.7 | 22.5 | 0.00 | 0.10 | 0.10 | 69 | 1011.8 |
| 20260830141056 | 21 | 232 | 9.7 | 22.5 | 0.00 | 0.10 | 0.10 | 69 | 1011.8 |
| 20260830140602 | 21 | 237 | 11.3 | 25.7 | 0.00 | 0.10 | 0.10 | 67 | 1011.8 |
| 20260830140116 | 21 | 254 | 12.9 | 25.7 | 0.00 | 0.10 | 0.10 | 68 | 1011.7 |
| 20260830135556 | 21 | 266 | 11.3 | 25.7 | 0.00 | 0.10 | 0.10 | 69 | 1011.7 |
| 20260830135057 | 20 | 360 | 11.3 | 25.7 | 0.00 | 0.10 | 0.10 | 70 | 1011.7 |
| 20260830134605 | 20 | 360 | 12.9 | 30.6 | 0.00 | 0.10 | 0.10 | 72 | 1011.7 |
| 20260830134059 | 20 | 360 | 9.7 | 30.6 | 0.00 | 0.10 | 0.10 | 73 | 1011.7 |
| 20260830133556 | 20 | 360 | 17.7 | 30.6 | 0.00 | 0.10 | 0.10 | 72 | 1011.7 |
| 20260830133101 | 21 | 254 | 16.1 | 30.6 | 0.00 | 0.10 | 0.10 | 68 | 1011.7 |
| 20260830132556 | 21 | 238 | 14.5 | 30.6 | 0.00 | 0.10 | 0.10 | 64 | 1011.6 |
| 20260830132058 | 21 | 264 | 14.5 | 33.8 | 0.00 | 0.10 | 0.10 | 65 | 1011.6 |
| 20260830131608 | 21 | 259 | 12.9 | 33.8 | 0.00 | 0.10 | 0.10 | 64 | 1011.5 |
| 20260830131057 | 21 | 236 | 17.7 | 33.8 | 0.00 | 0.10 | 0.10 | 63 | 1011.4 |
| 20260830130557 | 21 | 244 | 16.1 | 29.0 | 0.00 | 0.10 | 0.10 | 63 | 1011.4 |
| 20260830130109 | 21 | 270 | 12.9 | 35.4 | 0.00 | 0.10 | 0.10 | 63 | 1011.3 |
| 20260830125558 | 21 | 247 | 16.1 | 35.4 | 0.00 | 0.10 | 0.10 | 63 | 1011.2 |
| 20260830125057 | 21 | 246 | 17.7 | 33.8 | 0.00 | 0.10 | 0.10 | 63 | 1011.3 |
| 20260830124606 | 22 | 269 | 16.1 | 37.0 | 0.00 | 0.10 | 0.10 | 62 | 1011.2 |
| 20260830124101 | 22 | 227 | 12.9 | 37.0 | 0.00 | 0.10 | 0.10 | 61 | 1011.1 |
| 20260830123557 | 22 | 360 | 16.1 | 29.0 | 0.00 | 0.10 | 0.10 | 62 | 1011.0 |
| 20260830123102 | 22 | 231 | 20.9 | 29.0 | 0.00 | 0.10 | 0.10 | 61 | 1011.0 |
| 20260830122557 | 21 | 360 | 11.3 | 38.6 | 0.00 | 0.10 | 0.10 | 62 | 1011.0 |
| 20260830122057 | 21 | 244 | 19.3 | 38.6 | 0.00 | 0.10 | 0.10 | 62 | 1011.1 |
| 20260830121600 | 21 | 234 | 14.5 | 32.2 | 0.00 | 0.10 | 0.10 | 61 | 1010.9 |
| 20260830121059 | 21 | 205 | 17.7 | 32.2 | 0.00 | 0.10 | 0.10 | 61 | 1010.9 |
| 20260830120556 | 21 | 260 | 16.1 | 32.2 | 0.00 | 0.10 | 0.10 | 60 | 1010.8 |
| 20260830120107 | 21 | 257 | 11.3 | 22.5 | 0.00 | 0.10 | 0.10 | 62 | 1010.8 |
| 20260830115556 | 21 | 244 | 11.3 | 24.1 | 0.00 | 0.10 | 0.10 | 63 | 1010.8 |
| 20260830115057 | 21 | 215 | 8.0 | 30.6 | 0.00 | 0.10 | 0.10 | 63 | 1010.8 |
| 20260830114602 | 21 | 236 | 14.5 | 30.6 | 0.00 | 0.10 | 0.10 | 62 | 1010.7 |
| 20260830114100 | 21 | 251 | 17.7 | 30.6 | 0.00 | 0.10 | 0.10 | 62 | 1010.8 |
| 20260830113556 | 21 | 267 | 11.3 | 30.6 | 0.00 | 0.10 | 0.10 | 62 | 1010.7 |
| 20260830113103 | 21 | 244 | 6.4 | 27.4 | 0.00 | 0.10 | 0.10 | 63 | 1010.7 |
| 20260830112557 | 21 | 265 | 14.5 | 27.4 | 0.00 | 0.10 | 0.10 | 63 | 1010.7 |
| 20260830112101 | 21 | 240 | 12.9 | 27.4 | 0.00 | 0.10 | 0.10 | 62 | 1010.7 |
| 20260830111601 | 21 | 250 | 16.1 | 32.2 | 0.00 | 0.10 | 0.10 | 62 | 1010.6 |
| 20260830111100 | 21 | 360 | 12.9 | 32.2 | 0.00 | 0.10 | 0.10 | 62 | 1010.7 |
| 20260830110559 | 21 | 233 | 14.5 | 30.6 | 0.00 | 0.10 | 0.10 | 63 | 1010.6 |
| 20260830110059 | 22 | 273 | 14.5 | 32.2 | 0.00 | 0.10 | 0.10 | 61 | 1010.6 |
| 20260830105556 | 22 | 259 | 12.9 | 32.2 | 0.00 | 0.10 | 0.10 | 62 | 1010.6 |
| 20260830105056 | 22 | 278 | 17.7 | 32.2 | 0.00 | 0.10 | 0.10 | 60 | 1010.5 |
| 20260830104607 | 22 | 271 | 17.7 | 46.7 | 0.00 | 0.10 | 0.10 | 61 | 1010.5 |
| 20260830104057 | 22 | 253 | 17.7 | 46.7 | 0.00 | 0.10 | 0.10 | 60 | 1010.3 |
| 20260830103557 | 22 | 232 | 24.1 | 46.7 | 0.00 | 0.10 | 0.10 | 60 | 1010.4 |
| 20260830103059 | 22 | 257 | 19.3 | 33.8 | 0.00 | 0.10 | 0.10 | 60 | 1010.4 |
| 20260830102556 | 22 | 240 | 17.7 | 30.6 | 0.00 | 0.10 | 0.10 | 60 | 1010.3 |
| 20260830102057 | 22 | 264 | 12.9 | 29.0 | 0.00 | 0.10 | 0.10 | 60 | 1010.3 |
| 20260830101608 | 22 | 246 | 16.1 | 29.0 | 0.00 | 0.10 | 0.10 | 61 | 1010.3 |
| 20260830101057 | 22 | 234 | 16.1 | 30.6 | 0.00 | 0.10 | 0.10 | 62 | 1010.3 |
| 20260830100556 | 21 | 230 | 16.1 | 30.6 | 0.00 | 0.10 | 0.10 | 62 | 1010.2 |
| 20260830100105 | 21 | 249 | 14.5 | 27.4 | 0.00 | 0.10 | 0.10 | 61 | 1010.3 |
| 20260830095556 | 22 | 252 | 12.9 | 30.6 | 0.00 | 0.10 | 0.10 | 63 | 1010.3 |
| 20260830095057 | 21 | 276 | 16.1 | 41.8 | 0.00 | 0.10 | 0.10 | 62 | 1010.2 |
| 20260830094628 | 21 | 250 | 19.3 | 41.8 | 0.00 | 0.10 | 0.10 | 62 | 1010.2 |
| 20260830094057 | 21 | 232 | 19.3 | 38.6 | 0.00 | 0.10 | 0.10 | 62 | 1010.2 |
| 20260830093556 | 21 | 263 | 16.1 | 38.6 | 0.00 | 0.10 | 0.10 | 63 | 1010.2 |
| 20260830093106 | 21 | 292 | 12.9 | 37.0 | 0.00 | 0.10 | 0.10 | 62 | 1010.2 |
| 20260830092557 | 21 | 246 | 20.9 | 37.0 | 0.00 | 0.10 | 0.10 | 62 | 1010.2 |
| 20260830092056 | 22 | 223 | 14.5 | 37.0 | 0.00 | 0.10 | 0.10 | 63 | 1010.1 |
| 20260830091609 | 22 | 233 | 16.1 | 37.0 | 0.00 | 0.10 | 0.10 | 61 | 1010.0 |
| 20260830091059 | 22 | 267 | 16.1 | 37.0 | 0.00 | 0.10 | 0.10 | 62 | 1010.0 |
| 20260830090555 | 22 | 240 | 16.1 | 35.4 | 0.00 | 0.10 | 0.10 | 63 | 1010.0 |
| 20260830090108 | 22 | 237 | 14.5 | 22.5 | 0.00 | 0.10 | 0.10 | 63 | 1010.0 |
| 20260830085555 | 22 | 279 | 8.0 | 20.9 | 0.00 | 0.10 | 0.10 | 63 | 1009.9 |
| 20260830085101 | 22 | 236 | 9.7 | 32.2 | 0.00 | 0.10 | 0.10 | 64 | 1009.9 |
| 20260830084610 | 21 | 254 | 9.7 | 32.2 | 0.00 | 0.10 | 0.10 | 64 | 1009.8 |
| 20260830084056 | 21 | 256 | 14.5 | 30.6 | 0.00 | 0.10 | 0.10 | 64 | 1009.8 |
| 20260830083556 | 21 | 268 | 16.1 | 38.6 | 0.00 | 0.10 | 0.10 | 65 | 1009.8 |
| 20260830083125 | 21 | 176 | 19.3 | 38.6 | 0.00 | 0.10 | 0.10 | 64 | 1009.7 |
| 20260830082556 | 21 | 238 | 16.1 | 41.8 | 0.00 | 0.10 | 0.10 | 65 | 1009.7 |
| 20260830082056 | 21 | 253 | 19.3 | 41.8 | 0.00 | 0.10 | 0.10 | 63 | 1009.6 |
| 20260830081604 | 21 | 234 | 22.5 | 41.8 | 0.00 | 0.10 | 0.10 | 63 | 1009.5 |
| 20260830081056 | 22 | 227 | 20.9 | 38.6 | 0.00 | 0.10 | 0.10 | 63 | 1009.5 |
| 20260830080557 | 21 | 243 | 20.9 | 37.0 | 0.00 | 0.10 | 0.10 | 64 | 1009.4 |
| 20260830080101 | 21 | 212 | 17.7 | 37.0 | 0.00 | 0.10 | 0.10 | 64 | 1009.3 |
| 20260830075557 | 21 | 259 | 19.3 | 32.2 | 0.00 | 0.10 | 0.10 | 64 | 1009.3 |
| 20260830075057 | 21 | 249 | 16.1 | 33.8 | 0.00 | 0.10 | 0.10 | 65 | 1009.3 |
| 20260830074609 | 21 | 241 | 14.5 | 33.8 | 0.00 | 0.10 | 0.10 | 65 | 1009.4 |
| 20260830074057 | 21 | 253 | 16.1 | 33.8 | 0.00 | 0.10 | 0.10 | 65 | 1009.4 |
| 20260830073556 | 21 | 246 | 14.5 | 30.6 | 0.00 | 0.10 | 0.10 | 68 | 1009.4 |
| 20260830073109 | 20 | 254 | 16.1 | 25.7 | 0.00 | 0.10 | 0.10 | 69 | 1009.5 |
| 20260830072557 | 20 | 233 | 11.3 | 24.1 | 0.00 | 0.10 | 0.10 | 71 | 1009.5 |
| 20260830072058 | 20 | 360 | 11.3 | 33.8 | 0.00 | 0.10 | 0.10 | 72 | 1009.5 |
| 20260830071618 | 20 | 360 | 12.9 | 33.8 | 0.00 | 0.10 | 0.10 | 72 | 1009.4 |
| 20260830071058 | 20 | 360 | 14.5 | 30.6 | 0.00 | 0.10 | 0.10 | 73 | 1009.3 |
| 20260830070557 | 20 | 233 | 14.5 | 25.7 | 0.00 | 0.10 | 0.10 | 73 | 1009.2 |
| 20260830070108 | 20 | 360 | 12.9 | 25.7 | 0.00 | 0.10 | 0.10 | 74 | 1009.2 |
| 20260830065557 | 20 | 360 | 8.0 | 24.1 | 0.00 | 0.10 | 0.10 | 75 | 1009.2 |
| 20260830065057 | 19 | 236 | 11.3 | 24.1 | 0.00 | 0.10 | 0.10 | 75 | 1009.2 |
| 20260830064600 | 19 | 240 | 12.9 | 29.0 | 0.00 | 0.10 | 0.10 | 76 | 1009.2 |